This demonstration page uses our WeatherBlox Daily Observations layout. Learn more.

38.89511, -77.03637

Hourly Observations for October 10, 2018

Temp ( °F °C ) Dew Point ( °F °C ) Humidity (%) Winds ( mph kmh ) Pressure ( in mb ) Visibility ( mi km ) Precip ( " mm )
12:46 am 00:46 Cloudy 73 23 70 21 89 89 Calm 30.21 1023 10 16.0934 0 0
12:52 am 00:52 Cloudy 74 23.3 70 21.1 88 88 Calm 30.19 1023 10 16.0934 0 0
1:52 am 01:52 Cloudy 74 23.3 70 21.1 88 88 SE 3 6 30.17 1022 10 16.0934 0 0
2:21 am 02:21 Cloudy 74 23.3 70 21.1 88 88 Calm 30.18 1022 10 16.0934 0 0
2:52 am 02:52 Cloudy 74 23.3 70 21.1 88 88 Calm 30.15 1021 10 16.0934 0 0
3:49 am 03:49 Cloudy 73 23 70 21 89 89 Calm 30.15 1021 10 16.0934 0 0
3:52 am 03:52 Cloudy 74 23.3 70 21.1 88 88 Calm 30.14 1021 10 16.0934 0 0
4:11 am 04:11 Cloudy 74 23.3 70 21.1 88 88 SE 3 6 30.15 1021 10 16.0934 0 0
4:20 am 04:20 Cloudy 74 23.3 70 21.1 88 88 SSE 5 7 30.15 1021 10 16.0934 0 0
4:52 am 04:52 Cloudy 74 23.3 70 21.1 88 88 S 6 9 30.13 1020 10 16.0934 0 0
5:13 am 05:13 Cloudy 74 23.3 70 21.1 88 88 S 6 9 30.12 1020 10 16.0934 0 0
5:52 am 05:52 Cloudy 74 23.3 70 21.1 88 88 S 6 9 30.14 1021 10 16.0934 0 0
6:06 am 06:06 Cloudy 73 22.8 70 21.1 90 90 S 6 9 30.12 1020 10 16.0934 0 0
6:18 am 06:18 Cloudy 73 22.8 70 21.1 90 90 S 6 9 30.15 1021 10 16.0934 0 0
6:52 am 06:52 Cloudy 73 22.8 70 21.1 90 90 S 5 7 30.13 1020 10 16.0934 0 0
7:09 am 07:09 Mostly Cloudy 73 22.8 70 21.1 90 90 S 5 7 30.12 1020 10 16.0934 0 0
7:32 am 07:32 Mostly Cloudy 73 22.8 70 21.1 90 90 S 6 9 30.12 1020 10 16.0934 0 0
7:52 am 07:52 Cloudy 73 22.8 70 21.1 90 90 S 5 7 30.13 1020 10 16.0934 0 0
8:28 am 08:28 Cloudy 74 23.3 70 21.1 88 88 S 6 9 30.15 1021 10 16.0934 0 0
8:52 am 08:52 Cloudy 74 23.3 70 21.1 88 88 S 5 7 30.14 1021 10 16.0934 0 0
9:50 am 09:50 Mostly Cloudy 75 24 72 22 89 89 SSW 5 7 30.15 1021 10 16.0934 0 0
9:52 am 09:52 Mostly Cloudy 76 24.4 71 21.7 85 85 SSW 5 7 30.14 1021 10 16.0934 0 0
10:16 am 10:16 Partly Cloudy 76 24.4 70 21.1 82 82 S 3 6 30.12 1020 10 16.0934 0 0
10:52 am 10:52 Mostly Cloudy 78 25.6 71 21.7 79 79 S 7 11 30.11 1020 10 16.0934 0 0
11:52 am 11:52 Mostly Cloudy with Light Rain 80 26.7 71 21.7 74 74 S 6 9 30.09 1019 10 16.0934 0 0.0254
12:52 pm 12:52 Partly Cloudy 82 27.8 71 21.7 69 69 S 9 15 30.07 1018 10 16.0934 0 0.0254
1:27 pm 13:27 Mostly Cloudy 81 27.2 71 21.7 72 72 S 9 15 30.06 1018 10 16.0934 0 0
1:52 pm 13:52 Mostly Cloudy 81 27.2 71 21.7 72 72 S 8 13 30.03 1017 10 16.0934 0 0
2:52 pm 14:52 Mostly Cloudy 82 27.8 71 21.7 69 69 S 9 15 30 1016 10 16.0934 0 0
3:52 pm 15:52 Mostly Cloudy 81 27.2 70 21.1 69 69 S 10 17 29.98 1015 10 16.0934 0 0
4:52 pm 16:52 Mostly Cloudy 82 27.8 71 21.7 69 69 S 7 11 29.96 1015 10 16.0934 0 0
5:52 pm 17:52 Mostly Cloudy 80 26.7 70 21.1 71 71 S 8 13 29.96 1014 10 16.0934 0 0
6:52 pm 18:52 Mostly Cloudy 78 25.6 70 21.1 76 76 S 7 11 29.95 1014 10 16.0934 0 0
7:52 pm 19:52 Cloudy 78 25.6 68 20 71 71 SSE 7 11 29.94 1014 10 16.0934 0 0
8:52 pm 20:52 Cloudy 78 25.6 70 21.1 76 76 SSE 9 15 29.93 1013 10 16.0934 0 0
9:52 pm 21:52 Mostly Cloudy 77 25 71 21.7 82 82 S 7 11 29.93 1013 10 16.0934 0 0
10:52 pm 22:52 Mostly Cloudy 77 25 71 21.7 82 82 S 7 11 29.91 1013 10 16.0934 0 0
11:52 pm 23:52 Cloudy 77 25 71 21.7 82 82 S 12 19 29.89 1012 10 16.0934 0 0

Powered by AerisWeather